Location: Zagreb
(45.8000°N, 16.0000°E)
Time: 14:01:30
(UTC+02:00)

Transit 2A Rocket - Pass Details

Date: 17 August 2022
Orbit: 593 x 907 km, 66.7° (Epoch: 25 September)

Event Time Altitude Azimuth Distance (km) Brightness Sun altitude
Rises 00:48:06 0° 337° (NNW) 2,846 9.0 -30.6°
Reaches altitude 10° 00:51:34 10° 7° (N) 1,962 8.0 -30.7°
Maximum altitude 00:53:35 13° 35° (NE) 1,798 7.5 -30.7°
Drops below altitude 10° 00:55:38 10° 62° (ENE) 2,004 7.4 -30.7°
Enters shadow 00:56:46 - 74° (ENE) 2,250 7.6 -30.7°
Sets 00:59:14 0° 91° (E) 2,967 - -30.7°
